Regional Weather Roundup
Issued by NWS Cleveland, OH

Home | Current Version | Previous Version | Graphics & Text | Print | Product List | Glossary On
Versions: 1 2 3 4 5 6 7 8 9 10 11 12 13 14 15 16 17 18 19 20 21 22 23 24 25 26 27 28 29 30 31 32 33 34 35 36 37 38 39 40 41 42 43 44 45 46 47 48 49 50
000
ASUS41 KCLE 310100
RWRCLE
OHIO REGIONAL WEATHER ROUNDUP
NATIONAL WEATHER SERVICE WILMINGTON, OH
900 PM EDT SAT AUG 30 2014

NOTE: "FAIR" INDICATES FEW OR NO CLOUDS BELOW 12,000 FEET WITH NO
SIGNIFICANT WEATHER AND/OR OBSTRUCTIONS TO VISIBILITY.

OHZ001>008-015>018-024>027-034-035-043-044-310200-
   NORTHWEST OHIO

CITY           SKY/WX    TMP DP  RH WIND       PRES   REMARKS
DEFIANCE       CLOUDY    77  68  73 SW14G22   29.94R
FINDLAY        MOCLDY    77  68  73 SW12      29.96R
TOLEDO EXPRESS MOCLDY    77  68  73 SW15      29.93R
TOLEDO METCALF MOCLDY    78  67  68 SW12      29.94R
LIMA           CLOUDY    77  68  73 SW9       29.98S
$$

OHZ009>014-019>023-028>033-038-089-310200-
   NORTHEAST OHIO

CITY           SKY/WX    TMP DP  RH WIND       PRES   REMARKS
CLE-HOPKINS    PTCLDY    80  65  59 S8        29.98R
CLE-LAKEFRONT  PTCLDY    84  65  52 SW10      29.94R
CUY CO. ARPT   MOCLDY    79  70  73 S12       29.98R
LORAIN-ELYRIA  CLEAR     81  66  60 SW8       29.97R
ASHTABULA      MOCLDY    79  66  64 S8        29.99R
AKRON-CANTON   MOCLDY    80  66  62 S10       30.01R
WOOSTER        NOT AVBL
MANSFIELD      PTCLDY    77  67  71 S9        30.01R
YOUNGSTOWN     MOCLDY    80  65  59 S5        30.02R
$$

OHZ042-051>053-060>062-070>072-077>081-310200-
  SOUTHWEST OHIO

CITY           SKY/WX    TMP DP  RH WIND       PRES   REMARKS
CINC-COVINGTON LGT RAIN  72  69  90 S5        30.05R FOG
CINC-LUNKEN    LGT RAIN  71  70  96 CALM      30.05R
HAMILTON       LGT RAIN  74  72  93 SW5       30.04R
DAYTON         NOT AVBL
WRIGHT-PAT AFB NOT AVBL
DAYTON GENERAL CLOUDY    74  71  91 S9        30.03R
WILMINGTON     CLOUDY    71  68  90 SW6       30.05R
$$

OHZ036-037-039>041-045>050-054>059-063>069-073>076-082>088-310200-
  CENTRAL AND SOUTHEAST OHIO

CITY           SKY/WX    TMP DP  RH WIND       PRES   REMARKS
COLUMBUS       CLOUDY    82  66  58 SW12      30.02R
OSU AIRPORT    CLOUDY    78  67  68 SW9       30.02R
BOLTON FIELD   NOT AVBL
RICKENBACK AFB NOT AVBL
NEWARK         CLOUDY    79  65  62 SW9       30.02R
MARION         CLOUDY    79  68  69 S15G25    30.00R
LANCASTER      CLOUDY    78  67  68 SW9       30.04R
ZANESVILLE     PTCLDY    80  66  62 S6        30.03R
NEW PHILLY     PTCLDY    78  68  71 SE5       30.02R
$$



USA.gov is the U.S. government's official web portal to all federal, state and local government web resources and services.